Lincoln, NE

11:59 AM CDT on July 24, 2017 (GMT -0500)
Lincoln Municipal

Weather History for KLNK - February, 2013

Change the Weather History Date:

Monday, February 4, 2013

  Actual Average Record
Temperature  
Mean Temperature 31 °F 26 °F  
Max Temperature 37 °F 37 °F 67 °F (1890)
Min Temperature 24 °F 15 °F -21 °F (1905)
Degree Days  
Heating Degree Days 34 39  
Month to date heating degree days 151 156  
Since 1 July heating degree days 3806 3853  
Cooling Degree Days 0 0  
Month to date cooling degree days 0 0  
Year to date cooling degree days 0 0  
Moisture  
Dew Point 22 °F    
Average Humidity 84    
Maximum Humidity 92    
Minimum Humidity 75    
Precipitation  
Precipitation 0.00 in 0.02 in 1.05 in (2012)
Month to date precipitation T 0.10  
Year to date precipitation 0.73 0.74  
Snow  
Snow 0.00 in 0.30 in - ()
Month to date snowfall T 0.9  
Since 1 July snowfall 11.3 15.0  
Snow Depth T in    
Sea Level Pressure  
Sea Level Pressure 29.97 in    
Wind  
Wind Speed 9 mph (NNE)    
Max Wind Speed 26 mph    
Max Gust Speed 31 mph    
Visibility 9 miles    
Events      
T = Trace of Precipitation, MM = Missing Value Source: NWS Daily Summary

Daily Weather History Graph

Daily Weather History Graph

Search for Another Location

Airport or City:

Trip Planner

Search our weather history database for the weather conditions in past years. The results will help you decide how hot, cold, wet, or windy it might be!

Date:

Astronomy

Feb. 04, 2013 Rise Set
Actual Time 7:33 AM CST 5:48 PM CST
Civil Twilight 7:05 AM CST 6:17 PM CST
Nautical Twilight 6:32 AM CST 6:50 PM CST
Astronomical Twilight 6:00 AM CST 7:22 PM CST
Moon 2:11 AM CST (2/4) 12:12 PM CST (2/4)
Length of Visible Light 11h 12m
Length of Day
10h 14m
Last Quarter, 37% of the Moon is Illuminated
Feb 4
Last Quarter
Feb 10
New
Feb 17
First Quarter
Feb 25
Full
Mar 4
Last Quarter

Hourly Weather History & Observations

Time (CST) Temp. Windchill Dew Point Humidity Pressure Visibility Wind Dir Wind Speed Gust Speed Precip Events Conditions
12:54 AM 33.1 °F - 26.1 °F 75% 29.82 in 10.0 mi Calm Calm - N/A   Clear
1:54 AM 34.0 °F - 27.0 °F 75% 29.82 in 10.0 mi Calm Calm - N/A   Clear
2:54 AM 34.0 °F 29.8 °F 27.0 °F 75% 29.83 in 10.0 mi NW 4.6 mph - N/A   Clear
4:54 AM 34.0 °F 22.4 °F 27.0 °F 75% 29.89 in 10.0 mi North 20.7 mph - N/A   Clear
5:54 AM 28.9 °F 16.1 °F 24.1 °F 82% 29.94 in 10.0 mi North 19.6 mph - N/A   Clear
6:38 AM 28.4 °F 15.8 °F 24.8 °F 86% 29.94 in 10.0 mi North 18.4 mph 23.0 mph N/A   Mostly Cloudy
6:54 AM 27.0 °F 14.3 °F 23.0 °F 85% 29.99 in 10.0 mi North 17.3 mph - N/A   Overcast
7:54 AM 24.1 °F 10.1 °F 19.9 °F 84% 30.02 in 10.0 mi North 18.4 mph - N/A   Overcast
8:54 AM 25.0 °F 13.6 °F 21.0 °F 85% 30.04 in 9.0 mi North 12.7 mph - N/A   Overcast
9:54 AM 25.0 °F 13.1 °F 21.0 °F 85% 30.06 in 10.0 mi North 13.8 mph - N/A   Overcast
10:54 AM 26.1 °F 14.0 °F 19.9 °F 78% 30.08 in 10.0 mi North 15.0 mph - N/A   Overcast
11:54 AM 26.1 °F 16.2 °F 19.9 °F 78% 30.07 in 9.0 mi NNE 10.4 mph - N/A   Overcast
12:54 PM 26.1 °F 17.6 °F 19.9 °F 78% 30.06 in 9.0 mi NNE 8.1 mph - N/A   Overcast
1:54 PM 26.1 °F - 19.9 °F 78% 30.06 in 9.0 mi Calm Calm - N/A   Overcast
2:54 PM 26.1 °F 21.9 °F 19.9 °F 78% 30.04 in 8.0 mi North 3.5 mph - N/A   Overcast
3:54 PM 27.0 °F 23.0 °F 21.0 °F 78% 30.02 in 8.0 mi NE 3.5 mph - N/A   Overcast
4:54 PM 27.0 °F 23.0 °F 19.9 °F 75% 29.99 in 8.0 mi East 3.5 mph - N/A   Overcast
5:54 PM 26.6 °F - 21.2 °F 80% 29.95 in 8.0 mi Calm Calm - N/A   Overcast
6:54 PM 26.1 °F 18.4 °F 21.0 °F 81% 30.01 in 9.0 mi SW 6.9 mph - N/A   Overcast
7:54 PM 26.1 °F 19.4 °F 21.9 °F 84% 30.01 in 9.0 mi South 5.8 mph - N/A   Overcast
8:54 PM 27.0 °F 16.7 °F 23.0 °F 85% 29.96 in 10.0 mi South 11.5 mph - N/A   Overcast
9:46 PM 26.6 °F 15.2 °F 23.0 °F 86% 29.91 in 9.0 mi South 13.8 mph - N/A   Overcast
9:54 PM 26.1 °F 15.0 °F 23.0 °F 88% 29.95 in 9.0 mi South 12.7 mph - N/A   Overcast
10:54 PM 26.1 °F 17.6 °F 24.1 °F 92% 29.94 in 8.0 mi South 8.1 mph - N/A   Overcast
11:54 PM 26.1 °F 18.4 °F 24.1 °F 92% 29.93 in 7.0 mi SSW 6.9 mph - N/A   Overcast